[[{"header":{"parameterUnit":"m.s-1","parameterCategory":1,"la1":30.2991,"la2":30.254,"lo1":-89.0895,"lo2":-89.0444,"dy":0.0017,"dx":0.0017,"nx":28,"ny":28,"refTime":"2024-07-30T03:00:00:Z","depth":0,"parameterNumber":2,"parameterNumberName":"U-component_of_WINDS"},"data":[0,0,0,0,0,0,0,0,0,0,0,0,0,0,0,0,0,0,0,0,0,0,0,0,0,0,0,0,0,0,0,0,0,0,0,0,0,0,0,0,0,0,0,0,0,0,0,0,0,0,0,0,0,0,0,0,0,0,2.7787,2.7787,0,2.7846,2.7847,2.7848,2.7775,2.7772,2.777,2.7767,2.7832,2.7836,2.784,0,0,0,0,0,0,0,0,0,0,0,0,0,2.7611,2.7615,2.7787,2.7787,2.7788,2.7846,2.7847,2.7848,2.7775,2.7772,2.7769,2.7766,2.783,2.7835,2.7841,0,0,0,0,0,0,0,0,0,0,0,0,0,2.7681,2.7616,2.7787,2.7759,2.7757,2.7846,2.7847,2.7848,2.7776,2.7772,2.7768,2.7764,2.7829,2.7835,2.7841,2.7962,0,0,2.7861,2.7863,0,0,0,0,0,0,0,0,2.7677,2.7687,2.7762,2.7761,2.7759,2.7799,2.7809,2.7886,2.7777,2.7769,2.7767,2.7762,2.7824,2.7831,2.7851,2.7965,2.7967,2.7861,2.7865,2.7868,2.787,0,0,0,0,0,0,0,2.7672,2.7684,2.781,2.7763,2.7761,2.7744,2.7749,2.7823,2.7819,2.7769,2.7764,2.7772,2.7823,2.7845,2.7852,2.7968,2.7861,2.7867,2.7871,2.7873,2.8181,2.8185,0,0,0,0,0,0,2.767,2.7681,2.7808,2.7812,2.7707,2.775,2.7756,2.779,2.7818,2.7818,2.7775,2.7768,2.7836,2.7845,2.7854,2.7995,2.7868,2.7874,2.7877,2.8176,2.8182,2.8186,0,0,0,0,0,0,2.7667,2.7682,2.7806,2.7745,2.7759,2.7758,2.7796,2.7794,2.7816,2.7822,2.7821,2.7799,2.7833,2.7845,2.7934,2.7996,2.7877,2.7882,2.8171,2.8178,2.8184,2.8279,0,0,0,0,0,0,2.7662,2.7682,2.7727,2.7747,2.7763,2.7885,2.78,2.7798,2.7827,2.7818,2.7844,2.7845,2.7831,2.7925,2.7941,2.8003,2.7887,2.8166,2.8174,2.8182,2.827,2.8288,2.8303,0,0,0,0,0,2.7656,2.7753,2.773,2.7746,2.782,2.7889,2.7899,2.788,2.7832,2.7878,2.7881,2.7844,2.7987,2.7935,2.7952,2.8017,2.8162,2.8172,2.8181,2.8263,2.8284,2.8302,0,0,0,0,0,0,2.7743,2.7755,2.773,2.7836,2.7862,2.7877,2.7934,2.7904,2.7945,2.7935,2.7911,2.7918,2.8013,2.8024,2.7966,2.8133,2.8066,2.808,2.8123,2.8143,2.8159,2.8154,2.7893,0,0,0,0,0,2.7774,2.7828,2.7836,2.7929,2.7943,2.7937,2.7966,2.7949,2.7976,2.7987,2.7997,2.8025,2.8076,2.811,2.8157,2.8271,2.8275,2.8324,2.834,2.8353,2.8365,2.8424,2.8445,2.8218,2.8218,2.8218,0,0,2.784,2.7853,2.7889,2.7947,2.7965,2.8022,2.7947,2.8011,2.8053,2.7997,2.8081,2.8089,2.8119,2.822,2.8265,2.8232,2.8428,2.8366,2.8376,2.8381,2.8436,2.8458,2.8477,2.8225,2.8224,2.8223,0,0,2.7988,2.8004,2.8082,2.8101,2.8128,2.8122,2.8141,2.816,2.8163,2.8247,2.8205,2.8255,2.8344,2.8366,2.8388,2.8542,2.8508,2.8558,2.8643,2.8701,2.8718,2.8734,2.8787,2.8807,2.857,2.857,2.857,0,2.8066,2.815,2.8126,2.8192,2.8218,2.8168,2.8246,2.8266,2.8309,2.8328,2.8289,2.8397,2.8414,2.8519,2.8555,2.8576,2.8596,2.8555,2.8718,2.8733,2.8747,2.8798,2.8818,2.8576,2.8575,2.8575,2.8574,0,2.8244,2.8302,2.8362,2.8401,2.8434,2.8506,2.8493,2.8529,2.8509,2.8507,2.8592,2.8609,2.8658,2.8682,2.8664,2.8783,2.8761,2.8721,2.8653,2.8775,2.8822,2.8841,2.8584,2.8582,2.858,2.8579,0,0,2.845,2.8473,2.8496,2.8512,2.8537,2.8582,2.8651,2.8697,2.8728,2.8758,2.8815,2.889,2.8851,2.8877,2.8861,2.8911,2.9029,2.8864,2.8864,2.8893,2.916,2.9189,2.9212,2.9007,2.901,2.9013,2.9157,0,2.8597,2.8716,2.8695,2.881,2.8863,2.8814,2.8874,2.8896,2.8896,2.8941,2.8941,2.8993,2.894,2.8954,2.9002,2.9005,2.9082,2.8994,2.9059,2.9062,2.9052,2.9237,2.9269,2.9404,2.9175,2.9178,2.9181,0,2.8786,2.882,2.894,2.8954,2.8975,2.903,2.9069,2.9112,2.9136,2.9132,2.9159,2.9132,2.9201,2.9132,2.9225,2.9165,2.919,2.9195,2.92,2.9205,2.9128,2.9246,2.9447,2.9467,2.921,2.9207,2.9205,0,2.8922,2.8999,2.908,2.9095,2.9115,2.9154,2.9164,2.9183,2.9211,2.9245,2.9263,2.9305,2.9329,2.9362,2.9347,2.9299,2.9443,2.9373,2.9441,2.9441,2.9474,2.9472,2.968,2.9491,2.9491,2.9491,2.949,0,2.9088,2.9163,2.9141,2.9191,2.9273,2.9248,2.933,2.9334,2.9351,2.94,2.9362,2.9409,2.9387,2.9433,2.9422,2.9499,2.9511,2.9509,2.9505,2.9512,2.9512,2.9528,2.9518,2.9496,2.9495,2.9494,2.9493,0,2.9255,2.9244,2.9328,2.9338,2.9342,2.9402,2.9411,2.9457,2.9453,2.9516,2.9529,2.9523,2.9574,2.9562,2.962,2.9612,2.9709,2.9694,2.9701,2.9697,2.9765,2.9758,2.9991,3.0019,2.9813,2.9815,2.9816,0,2.9362,2.9418,2.9433,2.9463,2.9475,2.9524,2.9551,2.9528,2.9558,2.9587,2.963,2.9678,2.9714,2.9799,2.98,2.9842,2.9827,2.9906,2.9834,2.9838,2.9827,2.9823,2.9828,2.992,2.9923,2.9924,2.9926,0,2.9552,2.9543,2.9583,2.9621,2.9655,2.9684,2.971,2.9736,2.9715,2.9751,2.9802,2.983,2.9887,2.9934,2.9973,2.9983,2.9951,2.9948,2.9966,2.9974,2.9975,2.9973,2.9739,2.9943,2.9942,2.994,2.9939,2.9939,2.9691,2.9738,2.9755,2.9801,2.9817,2.9841,2.9884,2.9884,2.9926,2.9969,2.9953,3.0011,3.003,3.0079,3.0094,3.0139,3.0109,3.0135,3.0142,3.0148,3.0156,2.9968,3.0146,3.0145,3.0145,3.0144,3.0144,0,2.9878,2.9886,2.9928,2.9964,3.0,2.9964,2.999,3.0022,3.0074,3.0094,3.013,3.0187,3.0232,3.0236,3.0278,3.0313,3.0299,3.0325,3.0321,3.0324,3.0181,3.016,3.0335,3.0335,3.0335,3.0335,3.0335,3.0335,2.9979,3.0055,3.0047,3.0131,3.0138,3.0193,3.0211,3.0232,3.0248,3.0314,3.035,3.0351,3.0364,3.0406,3.0445,3.0445,3.0462,3.0493,3.0487,3.0353,3.0334,3.0316,3.0297,3.0497,3.0497,3.0626,3.0627,3.0628]},{"header":{"parameterUnit":"m.s-1","parameterCategory":1,"la1":30.2991,"la2":30.254,"lo1":-89.0895,"lo2":-89.0444,"dy":0.0017,"dx":0.0017,"nx":28,"ny":28,"refTime":"2024-07-30T03:00:00:Z","depth":0,"parameterNumber":3,"parameterNumberName":"V-component_of_WINDS"},"data":[0,0,0,0,0,0,0,0,0,0,0,0,0,0,0,0,0,0,0,0,0,0,0,0,0,0,0,0,0,0,0,0,0,0,0,0,0,0,0,0,0,0,0,0,0,0,0,0,0,0,0,0,0,0,0,0,0,0,4.0628,4.0629,0,4.0707,4.0708,4.0709,4.0665,4.0663,4.066,4.0658,4.0736,4.074,4.0744,0,0,0,0,0,0,0,0,0,0,0,0,0,4.0432,4.0436,4.0628,4.0629,4.063,4.0707,4.0708,4.0709,4.0665,4.0662,4.066,4.0657,4.0734,4.0739,4.0744,0,0,0,0,0,0,0,0,0,0,0,0,0,4.0515,4.0437,4.0628,4.0617,4.0617,4.0707,4.0708,4.071,4.0666,4.0662,4.0659,4.0656,4.0733,4.0739,4.0745,4.0848,0,0,4.0764,4.0766,0,0,0,0,0,0,0,0,4.051,4.0522,4.0618,4.0618,4.0618,4.0673,4.0668,4.0756,4.0667,4.0647,4.0658,4.0654,4.0717,4.0724,4.0746,4.0852,4.0855,4.0764,4.0768,4.0771,4.0772,0,0,0,0,0,0,0,4.0505,4.0518,4.0659,4.0619,4.0619,4.0607,4.0615,4.0684,4.0699,4.0649,4.0646,4.0656,4.0717,4.0741,4.0748,4.0856,4.0764,4.0769,4.0773,4.0776,4.1048,4.1051,0,0,0,0,0,0,4.05,4.0514,4.0657,4.0662,4.0555,4.0613,4.0622,4.0659,4.0699,4.0702,4.0658,4.0653,4.0732,4.0741,4.075,4.0872,4.077,4.0776,4.078,4.1044,4.1049,4.1052,0,0,0,0,0,0,4.0496,4.0513,4.0653,4.0587,4.0604,4.062,4.0661,4.0662,4.0686,4.0706,4.0708,4.0681,4.0729,4.0742,4.0824,4.0875,4.0779,4.0785,4.104,4.1046,4.105,4.1119,0,0,0,0,0,0,4.0491,4.0512,4.0553,4.0588,4.0608,4.0728,4.0664,4.0666,4.0697,4.0691,4.0727,4.073,4.0728,4.0815,4.083,4.0881,4.0789,4.1036,4.1043,4.1049,4.1112,4.1126,4.1137,0,0,0,0,0,4.0484,4.0569,4.0556,4.0573,4.066,4.0731,4.0742,4.0738,4.0701,4.0741,4.0754,4.0729,4.0867,4.0824,4.084,4.0894,4.1032,4.1041,4.1048,4.1106,4.1123,4.1137,0,0,0,0,0,0,4.0539,4.0574,4.0559,4.0658,4.0692,4.0723,4.0774,4.0756,4.08,4.0793,4.0785,4.0794,4.0879,4.0895,4.0847,4.0995,4.0943,4.0955,4.0982,4.0998,4.101,4.1004,4.0795,0,0,0,0,0,4.0563,4.0619,4.0646,4.0731,4.0748,4.0758,4.0789,4.0784,4.0818,4.0831,4.085,4.0883,4.0933,4.0966,4.1014,4.1114,4.112,4.1159,4.1172,4.1182,4.1192,4.1243,4.126,4.1079,4.1078,4.1078,0,0,4.0612,4.0638,4.0674,4.0742,4.0768,4.0824,4.0771,4.0834,4.0875,4.084,4.0919,4.0934,4.0969,4.1061,4.1101,4.1076,4.1243,4.1192,4.12,4.1204,4.1253,4.127,4.1286,4.1084,4.1083,4.1082,0,0,4.0731,4.0757,4.083,4.0856,4.0896,4.0901,4.0919,4.0952,4.0961,4.104,4.1015,4.1063,4.115,4.1176,4.1201,4.1327,4.1305,4.1343,4.1409,4.1459,4.1473,4.1486,4.1529,4.1545,4.1352,4.1353,4.1353,0,4.0787,4.0873,4.0869,4.0934,4.0963,4.0935,4.1007,4.1033,4.1085,4.1105,4.1076,4.1184,4.1206,4.1302,4.1332,4.1354,4.1372,4.1338,4.1472,4.1484,4.1496,4.1537,4.1554,4.1357,4.1356,4.1356,4.1356,0,4.0939,4.0999,4.1053,4.1105,4.114,4.1208,4.1212,4.1249,4.1239,4.1247,4.1326,4.1352,4.1403,4.1425,4.1417,4.1519,4.1502,4.1473,4.1421,4.1518,4.1556,4.1572,4.1363,4.1361,4.136,4.1359,0,0,4.1096,4.1144,4.1163,4.1186,4.1226,4.1271,4.1336,4.1387,4.1418,4.1454,4.1507,4.1581,4.1553,4.1581,4.1575,4.1619,4.1715,4.1584,4.1585,4.1606,4.1826,4.1847,4.1866,4.1701,4.1704,4.1706,4.1823,0,4.1216,4.1333,4.133,4.1436,4.149,4.1463,4.152,4.1549,4.1558,4.1603,4.1612,4.1664,4.1625,4.1641,4.1684,4.1695,4.1759,4.1686,4.1748,4.175,4.1739,4.1886,4.1909,4.2018,4.1838,4.1841,4.1842,0,4.1373,4.1415,4.1527,4.1558,4.158,4.1631,4.1676,4.1721,4.1753,4.1756,4.1786,4.1772,4.1836,4.1782,4.1869,4.1819,4.1844,4.1853,4.1857,4.1862,4.1802,4.1894,4.2053,4.2069,4.1866,4.1864,4.1863,0,4.1474,4.1558,4.1636,4.1656,4.1694,4.173,4.1747,4.1776,4.1806,4.1845,4.1864,4.1909,4.1934,4.1968,4.1966,4.1928,4.2053,4.2,4.2055,4.2055,4.2082,4.208,4.2247,4.21,4.21,4.21,4.2099,0,4.1608,4.1677,4.1682,4.1729,4.1805,4.18,4.1875,4.1888,4.1914,4.1962,4.1941,4.1986,4.1981,4.2026,4.2024,4.2094,4.2106,4.2109,4.2107,4.211,4.211,4.2126,4.2117,4.2104,4.2103,4.2102,4.2102,0,4.1733,4.174,4.1822,4.1851,4.1859,4.1914,4.1938,4.1982,4.1988,4.2049,4.2063,4.2072,4.2124,4.2125,4.2184,4.2182,4.2268,4.2259,4.2258,4.2255,4.231,4.2304,4.2492,4.2515,4.2355,4.2356,4.2358,0,4.1818,4.1871,4.1905,4.1936,4.1956,4.2007,4.2037,4.2033,4.2065,4.2104,4.2143,4.2192,4.2232,4.2315,4.2326,4.237,4.236,4.2423,4.2367,4.2367,4.2359,4.2356,4.236,4.2434,4.2435,4.2437,4.2438,0,4.1967,4.1967,4.2013,4.2059,4.2096,4.2132,4.2165,4.2191,4.2191,4.2227,4.228,4.2311,4.237,4.2419,4.2461,4.2476,4.2457,4.2456,4.247,4.2473,4.247,4.2471,4.2286,4.2451,4.245,4.2449,4.2448,4.2448,4.2074,4.2119,4.215,4.22,4.2225,4.2256,4.2298,4.2309,4.2354,4.2403,4.2397,4.2455,4.2483,4.2538,4.2557,4.26,4.2578,4.26,4.2606,4.2611,4.2616,4.2464,4.2608,4.2608,4.2607,4.2607,4.2607,0,4.2221,4.2239,4.2286,4.2333,4.2372,4.2351,4.2385,4.2419,4.2471,4.2499,4.2538,4.2597,4.2644,4.2658,4.2702,4.2734,4.2726,4.2746,4.2743,4.2746,4.2634,4.2616,4.2752,4.2752,4.2752,4.2752,4.2752,4.2752,4.2302,4.2376,4.2379,4.2464,4.2481,4.2538,4.256,4.2587,4.2609,4.2677,4.2716,4.2725,4.2747,4.2792,4.2833,4.2836,4.2852,4.2876,4.2874,4.2769,4.2754,4.2741,4.2723,4.288,4.288,4.2983,4.2984,4.2984]}]]